TERRASAR-X

Last updated on Sat Apr 13 2024 01:02:24 GMT+0100 (British Summer Time)

1 31698U 07026A 24103.50298964 .00001909 00000+0 94065-4 0 9991 2 31698 97.4464 111.5887 0001934 86.0639 274.0816 15.19155391932421
UTC large
Height (km)
Speed (km/s)
/
Latitude / Longitude
Inclination (degrees)
Orbital Period (minutes)
Azimuth
Elevation
Range (km)
Doppler Factor

Next 0 passes for location: London (51.5072 / 0.1276)

Sorry there are no passes over London.